Powrót do katalogu

QPS-SAR-15 SUKUNAMI-1

AktywnyNaukaVLEO
NORAD 67228·PAYLOAD·🇯🇵 Japan

Wystrzelony Dec 21, 2025 z Rocket Lab Launch Complex 1

Loading…

Następne Przeloty (najbliższe 24 godziny)

TLE

ŚwieżeSource: Space-Track

Epoka: Sep 14, 2026, 15:21 UTC

1 67228U 25307A   26257.63960398  .00003308  00000-0  27869-3 0  9997
2 67228  42.0053  96.4303 0011616 224.4623 135.5271 14.99595451 40116

Śledź QPS-SAR-15 SUKUNAMI-1 w czasie rzeczywistym z AllMySat

Download on the App Store